Starlink 32504

operational
NORAD ID: 62024 Int'l Des: 2024-213 Owner: SPXS Country: US Constellation: starlink
LEOCIRCULAR

About Starlink 32504

Description loading...

Live Position

Loading 3D Globe...

Upcoming Passes

Altitude History

Altitude vs Time

uPlot chart will show altitude changes over time

Two-Line Element Set

1 62024U 24213S 25306.50419279 .00035163 00000-0 11929-2 0 9991
2 62024 53.1601 38.7861 0001203 103.5904 256.5231 15.30222010 53685
Epoch: Nov 2, 2025 • Age: 35 hours

Current Status

Altitude 478.4 km
Velocity 7.63 km/s
Sub-Earth Point 42.00°N, 48.29°E
Launch Date Nov 18, 2024
Age 0.9 years
Type internet

Technical Details

Classification Payload
Mass 730.00 kg
Dry Mass 700.00 kg
Total Mass 730.00 kg
Length 0.30 m
Diameter 4.10 m
Span 29.00 m
Shape Box + pan
Manufacturer SPXS
Bus Type Starlink V2M
Phase Status In Orbit
Owner/State SPXS/US

Large Constellations

Loading constellations...